Enid Vance AFB, OK

6:15 AM CDT on July 23, 2017 (GMT -0500)
Vance Air Force Base

Weather History for KEND - March, 2014

Change the Weather History Date:

Monday, March 17, 2014

  Actual Average Record
Temperature  
Mean Temperature 42 °F -  
Max Temperature 59 °F 57 °F 86 °F (2009)
Min Temperature 24 °F 37 °F 24 °F (2014)
Degree Days  
Heating Degree Days 24    
Moisture  
Dew Point 30 °F    
Average Humidity 64    
Maximum Humidity 100    
Minimum Humidity 34    
Precipitation  
Precipitation 0.00 in - - ()
Sea Level Pressure  
Sea Level Pressure 29.82 in    
Wind  
Wind Speed 9 mph (SSE)    
Max Wind Speed 22 mph    
Max Gust Speed 29 mph    
Visibility 10 miles    
Events      
Averages and records for this station are not official NWS values.
T = Trace of Precipitation, MM = Missing Value Source: NWS Daily Summary

Daily Weather History Graph

Daily Weather History Graph

Search for Another Location

Airport or City:

Trip Planner

Search our weather history database for the weather conditions in past years. The results will help you decide how hot, cold, wet, or windy it might be!

Date:

Astronomy

Mar. 17, 2014 Rise Set
Actual Time 7:39 AM CDT 7:40 PM CDT
Civil Twilight 7:13 AM CDT 8:06 PM CDT
Nautical Twilight 6:44 AM CDT 8:36 PM CDT
Astronomical Twilight 6:13 AM CDT 9:06 PM CDT
Moon 8:56 PM CDT (3/17) 7:58 AM CDT (3/17)
Length of Visible Light 12h 52m
Length of Day
12h 01m
Full, 99% of the Moon is Illuminated
Mar 17
Full
Mar 23
Last Quarter
Mar 30
New
Apr 7
First Quarter
Apr 15
Full

Hourly Weather History & Observations

Time (CDT) Temp. Windchill Dew Point Humidity Pressure Visibility Wind Dir Wind Speed Gust Speed Precip Events Conditions
12:58 AM 31.6 °F - 23.7 °F 73% 30.13 in 10.0 mi NNE 2.3 mph - N/A   Clear
1:58 AM 31.5 °F 28.1 °F 23.4 °F 72% 30.10 in 10.0 mi ENE 3.5 mph - N/A   Clear
2:58 AM 27.5 °F - 25.5 °F 92% 30.09 in 10.0 mi North 2.3 mph - N/A   Clear
3:55 AM 26.6 °F 21.2 °F 24.8 °F 93% 30.05 in 10.0 mi SE 4.6 mph - N/A   Partly Cloudy
4:55 AM 30.2 °F 23.4 °F 23.0 °F 75% 30.02 in 10.0 mi SSE 6.9 mph - N/A   Partly Cloudy
5:55 AM 26.6 °F 20.0 °F 23.0 °F 86% 30.00 in 10.0 mi SSE 5.8 mph - N/A   Partly Cloudy
6:55 AM 24.8 °F 16.9 °F 23.0 °F 93% 29.99 in 10.0 mi South 6.9 mph - N/A   Partly Cloudy
7:55 AM 24.8 °F 16.9 °F 24.8 °F 100% 29.98 in 10.0 mi South 6.9 mph - N/A   Partly Cloudy
8:55 AM 32.0 °F 24.8 °F 32.0 °F 100% 29.96 in 10.0 mi SSW 8.1 mph - N/A   Partly Cloudy
9:55 AM 39.2 °F 32.0 °F 28.4 °F 65% 29.94 in 10.0 mi SSW 11.5 mph - N/A   Scattered Clouds
10:55 AM 44.6 °F 38.8 °F 28.4 °F 53% 29.91 in 10.0 mi SSW 11.5 mph - N/A   Scattered Clouds
11:58 AM 50.0 °F - 32.0 °F 50% 29.84 in 10.0 mi SSW 13.8 mph 19.6 mph N/A   Scattered Clouds
12:55 PM 53.6 °F - 32.0 °F 44% 29.81 in 10.0 mi South 13.8 mph - N/A   Mostly Cloudy
1:57 PM 59.0 °F - 32.0 °F 36% 29.78 in 10.0 mi South 17.3 mph 21.9 mph N/A   Mostly Cloudy
2:55 PM 59.0 °F - 32.0 °F 36% 29.71 in 10.0 mi SSE 19.6 mph 23.0 mph N/A   Mostly Cloudy
3:58 PM 59.0 °F - 30.2 °F 34% 29.67 in 10.0 mi South 20.7 mph - N/A   Mostly Cloudy
4:55 PM 59.0 °F - 33.8 °F 39% 29.65 in 10.0 mi South 20.7 mph 27.6 mph N/A   Mostly Cloudy
5:56 PM 57.2 °F - 35.6 °F 44% 29.62 in 10.0 mi South 20.7 mph 28.8 mph N/A   Mostly Cloudy
6:57 PM 53.6 °F - 33.8 °F 47% 29.62 in 10.0 mi SSE 21.9 mph 26.5 mph N/A   Mostly Cloudy
7:55 PM 51.8 °F - 35.6 °F 54% 29.62 in 10.0 mi SSE 18.4 mph 23.0 mph N/A   Mostly Cloudy
8:55 PM 48.2 °F - 33.8 °F 58% 29.57 in 10.0 mi SSE 19.6 mph - N/A   Mostly Cloudy
9:58 PM 48.2 °F - 33.8 °F 58% 29.53 in 10.0 mi SE 16.1 mph 21.9 mph N/A   Mostly Cloudy
10:58 PM 46.9 °F - 34.3 °F 62% 29.51 in 10.0 mi SE 18.4 mph - N/A   Clear
11:58 PM 46.8 °F - 35.2 °F 64% 29.48 in 10.0 mi SSE 18.4 mph - N/A   Clear